Date,TemperatureHighF,TemperatureAvgF,TemperatureLowF,DewpointHighF,DewpointAvgF,DewpointLowF,HumidityHigh,HumidityAvg,HumidityLow,PressureMaxIn,PressureMinIn,WindSpeedMaxMPH,WindSpeedAvgMPH,GustSpeedMaxMPH,PrecipitationSumIn
2013-3-1,47.2,36.5,24.0,31.9,26.4,21.6,97,69,46,29.91,29.83,14,1,17,0.00
2013-3-2,45.9,35.2,25.2,29.4,23.8,16.8,91,66,45,29.92,29.81,16,2,17,0.00
2013-3-3,45.6,34.4,24.8,22.7,18.2,15.2,73,52,38,29.98,29.84,16,3,20,0.00
2013-3-4,51.7,34.3,21.2,22.3,16.3,11.5,76,52,21,30.12,29.97,17,2,20,0.00
2013-3-5,45.1,39.2,29.9,43.9,34.7,22.3,99,85,54,30.06,29.55,10,1,10,0.19
2013-3-6,46.8,40.5,34.4,44.2,30.6,24.9,100,70,48,30.04,29.51,30,7,32,0.04
2013-3-7,52.2,40.9,31.6,30.9,27.1,22.9,76,59,42,30.24,30.03,16,3,20,0.00
2013-3-8,55.7,41.7,27.0,27.1,23.7,21.5,81,52,28,30.29,30.15,18,3,21,0.00
2013-3-9,64.0,43.5,25.7,32.8,27.7,22.4,91,59,26,30.34,30.22,11,1,11,0.00
2013-3-10,67.3,46.5,26.3,36.7,29.1,24.8,97,59,22,30.31,30.18,10,1,12,0.00
2013-3-11,67.3,52.3,33.2,51.9,41.5,23.5,86,68,50,30.22,29.89,20,2,20,0.00
2013-3-12,70.5,59.6,46.4,61.6,51.5,30.9,100,77,41,29.94,29.73,16,3,19,0.54
2013-3-13,56.2,44.6,30.5,34.8,26.1,16.5,93,51,29,30.13,29.94,22,4,25,0.00
2013-3-14,53.9,38.1,25.8,24.9,18.4,14.3,76,47,23,30.25,30.11,19,3,19,0.00
2013-3-15,62.5,43.9,23.7,35.6,27.5,18.9,87,56,32,30.19,29.88,14,1,21,0.00
2013-3-16,78.1,59.6,42.9,51.4,43.4,33.2,79,58,34,29.88,29.63,20,2,22,0.00
2013-3-17,57.7,49.2,39.8,51.9,43.4,35.7,99,81,63,30.16,29.80,12,2,16,0.00
2013-3-18,40.4,38.5,36.8,39.3,37.3,35.5,98,95,89,30.19,29.82,13,2,14,0.40
2013-3-19,66.9,50.2,38.3,47.1,32.8,13.5,100,62,16,30.01,29.81,19,3,23,0.00
2013-3-20,57.1,44.5,32.4,26.9,16.9,8.5,77,36,18,30.11,29.79,14,1,16,0.00
2013-3-21,44.2,37.9,28.8,33.4,18.0,8.0,84,47,26,29.98,29.72,20,4,22,0.00
2013-3-22,52.7,36.0,20.6,24.4,14.2,9.2,71,44,21,30.09,29.96,16,2,16,0.00
2013-3-23,56.9,42.1,31.6,33.9,27.3,20.5,82,59,34,30.05,29.89,7,0,7,0.00
2013-3-24,39.6,36.4,31.2,36.9,33.5,27.1,94,89,81,29.93,29.55,15,1,15,0.83
2013-3-25,47.7,39.3,33.8,37.6,28.7,20.8,97,70,39,29.82,29.56,24,4,25,0.01
2013-3-26,47.7,39.9,28.8,28.3,25.0,21.5,80,56,44,30.11,29.81,20,3,20,0.00
2013-3-27,51.4,39.2,26.5,28.4,23.2,19.3,88,56,30,30.23,30.11,24,4,25,0.00
2013-3-28,57.1,40.1,24.2,28.6,23.3,20.3,86,56,26,30.29,30.14,19,2,20,0.00
2013-3-29,59.6,42.6,24.4,32.7,26.0,21.3,93,58,23,30.34,30.17,13,1,14,0.00
2013-3-30,67.6,51.0,36.2,42.4,35.3,27.3,85,59,28,30.24,30.06,11,1,12,0.00
2013-3-31,68.6,55.4,46.6,56.6,50.2,40.3,99,84,61,30.08,29.77,14,2,16,0.76